カタログに戻る

STARLINK-31874

運用中通信VLEO
NORAD 60603·PAYLOAD·🇺🇸 United States

打ち上げ Aug 20, 2024 から Cape Canaveral Space Force Station

Loading…

次のパス (今後24時間)

TLE

最新Source: CelesTrak SupGP

元期: Sep 15, 2026, 03:33 UTC

1 60603C 24150W   26258.14840278  .00057740  00000+0  17057-2 0  2586
2 60603  53.1570 142.8934 0001300  78.2800  22.6120 15.34365494    16

AllMySatでSTARLINK-31874をリアルタイム追跡

Download on the App Store